Weather History for KD60 - August, 2014

Change the Weather History Date:

Tuesday, August 26, 2014

  Actual Average (KISN) Record (KISN)
Temperature  
Mean Temperature 52 °F 66 °F  
Max Temperature 68 °F 81 °F 99 °F (1901)
Min Temperature 37 °F 51 °F 33 °F (1914)
Degree Days  
Heating Degree Days 12 2  
Month to date heating degree days 33  
Since 1 June heating degree days 177  
Since 1 July heating degree days 57  
Cooling Degree Days 0 4  
Month to date cooling degree days 151  
Year to date cooling degree days 414  
Since 1 June cooling degree days 401  
Growing Degree Days 2 (Base 50)    
Moisture  
Dew Point 45 °F    
Average Humidity 76    
Maximum Humidity 100    
Minimum Humidity 40    
Precipitation  
Precipitation 0.00 in 0.05 in 1.19 in (1903)
Month to date precipitation 1.23  
Year to date precipitation 10.90  
Sea Level Pressure  
Sea Level Pressure 30.17 in    
Wind  
Wind Speed 5 mph (SSW)    
Max Wind Speed 9 mph    
Max Gust Speed -    
Visibility 10 miles    
Events      
T = Trace of Precipitation, MM = Missing Value Source: NWS Daily Summary

Daily Weather History Graph

Daily Weather History Graph

Search for Another Location

Airport or City:

Trip Planner

Search our weather history database for the weather conditions in past years. The results will help you decide how hot, cold, wet, or windy it might be!

Date:

Astronomy

Aug. 26, 2014 Rise Set
Actual Time 7:00 AM CDT 8:44 PM CDT
Civil Twilight 6:27 AM CDT 9:17 PM CDT
Nautical Twilight 5:47 AM CDT 9:58 PM CDT
Astronomical Twilight 5:02 AM CDT 10:42 PM CDT
Moon 8:11 AM CDT (8/26) 8:56 PM CDT (8/26)
Length of Visible Light 14h 50m
Length of Day
13h 44m
New Moon, 1% of the Moon is Illuminated
Aug 26
New Moon
Sep 2
First Quarter
Sep 8
Full
Sep 15
Last Quarter
Sep 24
New

Hourly Weather History & Observations

Time (CDT) Temp. Windchill Dew Point Humidity Pressure Visibility Wind Dir Wind Speed Gust Speed Precip Events Conditions
12:15 AM 50.0 °F - 50.0 °F 100% 30.16 in 10.0 mi West 6.9 mph - N/A   Overcast
12:35 AM 50.0 °F - 50.0 °F 100% 30.16 in 10.0 mi West 5.8 mph - N/A   Overcast
12:55 AM 50.0 °F - 50.0 °F 100% 30.16 in 10.0 mi West 6.9 mph - N/A   Overcast
1:15 AM 50.0 °F - 50.0 °F 100% 30.16 in 10.0 mi West 6.9 mph - N/A   Overcast
1:35 AM 50.0 °F - 50.0 °F 100% 30.16 in 10.0 mi West 6.9 mph - N/A   Overcast
1:55 AM 46.4 °F 42.9 °F 46.4 °F 100% 30.15 in 10.0 mi West 6.9 mph - N/A   Scattered Clouds
2:15 AM 46.4 °F 43.5 °F 46.4 °F 100% 30.16 in 10.0 mi West 5.8 mph - N/A   Partly Cloudy
2:35 AM 44.6 °F 41.4 °F 44.6 °F 100% 30.16 in 10.0 mi West 5.8 mph - N/A   Clear
2:55 AM 44.6 °F 40.2 °F 44.6 °F 100% 30.16 in 10.0 mi WSW 8.1 mph - N/A   Clear
3:15 AM 42.8 °F 40.1 °F 42.8 °F 100% 30.16 in 10.0 mi West 4.6 mph - N/A   Clear
3:35 AM 41.0 °F 38.0 °F 41.0 °F 100% 30.16 in 10.0 mi SW 4.6 mph - N/A   Clear
3:55 AM 41.0 °F 38.0 °F 41.0 °F 100% 30.16 in 10.0 mi SW 4.6 mph - N/A   Clear
4:15 AM 41.0 °F 37.1 °F 41.0 °F 100% 30.16 in 10.0 mi West 5.8 mph - N/A   Clear
4:35 AM 41.0 °F 38.0 °F 41.0 °F 100% 30.16 in 10.0 mi WSW 4.6 mph - N/A   Clear
4:55 AM 41.0 °F 35.8 °F 41.0 °F 100% 30.16 in 10.0 mi SW 8.1 mph - N/A   Clear
5:15 AM 41.0 °F 38.0 °F 41.0 °F 100% 30.16 in 10.0 mi WSW 4.6 mph - N/A   Clear
5:35 AM 41.0 °F 35.8 °F 41.0 °F 100% 30.17 in 10.0 mi SW 8.1 mph - N/A   Clear
5:55 AM 41.0 °F 37.1 °F 41.0 °F 100% 30.18 in 10.0 mi SW 5.8 mph - N/A   Clear
6:15 AM 39.2 °F 35.9 °F 39.2 °F 100% 30.19 in 10.0 mi SW 4.6 mph - N/A   Clear
6:35 AM 39.2 °F - 39.2 °F 100% 30.18 in 10.0 mi Calm Calm - N/A   Clear
6:55 AM 39.2 °F - 39.2 °F 100% 30.19 in 3.0 mi Calm Calm - N/A   Clear
7:15 AM 37.4 °F - 37.4 °F 100% 30.19 in 1.2 mi Calm Calm - N/A   Clear
7:35 AM 37.4 °F - 37.4 °F 100% 30.19 in 7.0 mi Calm Calm - N/A   Clear
7:55 AM 41.0 °F - 41.0 °F 100% 30.19 in 10.0 mi Calm Calm - N/A   Clear
8:15 AM 44.6 °F - 44.6 °F 100% 30.19 in 10.0 mi Calm Calm - N/A   Clear
8:35 AM 46.4 °F - 46.4 °F 100% 30.19 in 10.0 mi Calm Calm - N/A   Clear
8:55 AM 48.2 °F - 48.2 °F 100% 30.20 in 10.0 mi Calm Calm - N/A   Clear
9:15 AM 50.0 °F - 50.0 °F 100% 30.20 in 10.0 mi WSW 3.5 mph - N/A   Clear
9:35 AM 53.6 °F - 53.6 °F 100% 30.20 in 10.0 mi West 3.5 mph - N/A   Clear
9:55 AM 55.4 °F - 51.8 °F 88% 30.21 in 10.0 mi Calm Calm - N/A   Clear
10:15 AM 57.2 °F - 50.0 °F 77% 30.20 in 10.0 mi West 4.6 mph - N/A   Clear
10:35 AM 59.0 °F - 50.0 °F 72% 30.21 in 10.0 mi WSW 3.5 mph - N/A   Clear
10:55 AM 60.8 °F - 48.2 °F 63% 30.20 in 10.0 mi SW 4.6 mph - N/A   Clear
11:15 AM 62.6 °F - 48.2 °F 59% 30.20 in 10.0 mi Calm Calm - N/A   Clear
11:35 AM 62.6 °F - 44.6 °F 52% 30.21 in 10.0 mi Calm Calm - N/A   Clear
11:55 AM 62.6 °F - 44.6 °F 52% 30.21 in 10.0 mi SW 3.5 mph - N/A   Clear
12:15 PM 64.4 °F - 44.6 °F 49% 30.21 in 10.0 mi ENE 4.6 mph - N/A   Scattered Clouds
12:35 PM 62.6 °F - 42.8 °F 48% 30.20 in 10.0 mi SSW 3.5 mph - N/A   Partly Cloudy
12:55 PM 64.4 °F - 42.8 °F 45% 30.20 in 10.0 mi South 5.8 mph - N/A   Clear
1:15 PM 64.4 °F - 41.0 °F 42% 30.19 in 10.0 mi Calm Calm - N/A   Clear
1:35 PM 64.4 °F - 42.8 °F 45% 30.19 in 10.0 mi Calm Calm - N/A   Clear
1:55 PM 66.2 °F - 44.6 °F 46% 30.19 in 10.0 mi South 3.5 mph - N/A   Partly Cloudy
2:15 PM 66.2 °F - 42.8 °F 43% 30.19 in 10.0 mi South 4.6 mph - N/A   Clear
2:35 PM 66.2 °F - 41.0 °F 40% 30.18 in 10.0 mi WSW 5.8 mph - N/A   Clear
2:55 PM 66.2 °F - 42.8 °F 43% 30.17 in 10.0 mi South 8.1 mph - N/A   Clear
3:15 PM 66.2 °F - 44.6 °F 46% 30.17 in 10.0 mi Calm Calm - N/A   Clear
3:35 PM 68.0 °F - 44.6 °F 43% 30.16 in 10.0 mi ESE 4.6 mph - N/A   Clear
3:55 PM 66.2 °F - 44.6 °F 46% 30.16 in 10.0 mi SSW 6.9 mph - N/A   Partly Cloudy
4:15 PM 68.0 °F - 44.6 °F 43% 30.16 in 10.0 mi SSE 9.2 mph - N/A   Clear
4:35 PM 68.0 °F - 44.6 °F 43% 30.15 in 10.0 mi SSW 4.6 mph - N/A   Clear
4:55 PM 68.0 °F - 44.6 °F 43% 30.15 in 10.0 mi South 8.1 mph - N/A   Clear
5:15 PM 68.0 °F - 46.4 °F 46% 30.14 in 10.0 mi SSW 6.9 mph - N/A   Scattered Clouds
5:35 PM 68.0 °F - 46.4 °F 46% 30.15 in 10.0 mi South 8.1 mph - N/A   Partly Cloudy
5:55 PM 68.0 °F - 46.4 °F 46% 30.15 in 10.0 mi South 6.9 mph - N/A   Clear
6:15 PM 68.0 °F - 46.4 °F 46% 30.15 in 10.0 mi South 6.9 mph - N/A   Scattered Clouds
6:35 PM 68.0 °F - 46.4 °F 46% 30.14 in 10.0 mi South 6.9 mph - N/A   Partly Cloudy
6:55 PM 68.0 °F - 44.6 °F 43% 30.14 in 10.0 mi South 4.6 mph - N/A   Clear
7:15 PM 66.2 °F - 44.6 °F 46% 30.14 in 10.0 mi South 5.8 mph - N/A   Clear
7:35 PM 66.2 °F - 44.6 °F 46% 30.14 in 10.0 mi South 5.8 mph - N/A   Clear
7:55 PM 64.4 °F - 46.4 °F 52% 30.14 in 10.0 mi SE 6.9 mph - N/A   Clear
8:15 PM 62.6 °F - 46.4 °F 55% 30.15 in 10.0 mi SSE 6.9 mph - N/A   Clear
8:35 PM 59.0 °F - 48.2 °F 67% 30.15 in 10.0 mi SE 9.2 mph - N/A   Clear
8:55 PM 57.2 °F - 48.2 °F 72% 30.15 in 10.0 mi SE 9.2 mph - N/A   Clear
9:15 PM 55.4 °F - 50.0 °F 82% 30.15 in 10.0 mi SSE 8.1 mph - N/A   Clear
9:35 PM 55.4 °F - 50.0 °F 82% 30.16 in 10.0 mi SSE 8.1 mph - N/A   Clear
9:55 PM 53.6 °F - 50.0 °F 88% 30.16 in 10.0 mi SE 8.1 mph - N/A   Clear
10:15 PM 53.6 °F - 50.0 °F 88% 30.17 in 10.0 mi South 3.5 mph - N/A   Clear
10:35 PM 48.2 °F - 48.2 °F 100% 30.17 in 10.0 mi Calm Calm - N/A   Clear
10:55 PM 46.4 °F - 46.4 °F 100% 30.17 in 10.0 mi Calm Calm - N/A   Clear
11:15 PM 46.4 °F - 46.4 °F 100% 30.17 in 10.0 mi Calm Calm - N/A   Clear
11:35 PM 46.4 °F - 46.4 °F 100% 30.17 in 10.0 mi Calm Calm - N/A   Clear